Regional Weather Roundup
Issued by NWS

Home | Current Version | Previous Version | Text Only | Print | Product List | Glossary Off
Versions: 1 2 3 4 5 6 7 8 9 10 11 12 13 14 15 16 17 18 19 20 21 22 23 24 25 26 27 28 29 30 31 32 33 34 35 36 37 38 39 40 41 42 43 44 45 46 47 48 49 50

000
ASUS43 KMPX 241410
RWRMN
WEATHER ROUNDUP FOR MINNESOTA
NATIONAL WEATHER SERVICE TWIN CITIES/CHANHASSEN MN
900 AM CDT SUN JUL 24 2016


NOTE: "FAIR" INDICATES FEW OR NO CLOUDS BELOW 12,000 FEET WITH NO
SIGNIFICANT WEATHER AND/OR OBSTRUCTIONS TO VISIBILITY. N/A MEANS
CURRENT SKY AND/OR WEATHER CONDITIONS ARE NOT AVAILABLE.

MNZ060>063-068>070-241500-
   Twin Cities Metro

CITY           SKY/WX    TMP DP  RH WIND       PRES   REMARKS
TWIN CITIES    MOSUNNY   78  69  73 W10       29.84R
ST PAUL        SUNNY     78  70  76 W10G18    29.83R
CRYSTAL        MOSUNNY   77  66  68 NW9       29.84R
BLAINE         MOSUNNY   79  72  78 W13       29.84R
LAKEVILLE      SUNNY     75  70  83 NW8       29.85S
EDEN PRAIRIE   SUNNY     77  67  71 W8        29.85R
LAKEVILLE      SUNNY     75  70  83 NW8       29.85S
SOUTH ST PAUL  SUNNY     78  71  79 W9        29.84R
LAKE ELMO      FAIR      77  72  83 W9        29.84S
$$
MNZ001>005-007-008-013>017-022>024-027-028-241500-
   Northwest Minnesota

CITY           SKY/WX    TMP DP  RH WIND       PRES   REMARKS
BEMIDJI        CLOUDY    64  61  88 W16       29.83R
HALLOCK        SUNNY     68  63  83 W10       29.81R
ROSEAU         SUNNY     66  61  82 W9G20     29.79R
WARROAD        PTSUNNY   64  61  88 W15       29.78R
THIEF RVR FALL SUNNY     66  60  81 W12       29.85R
CROOKSTON      SUNNY     68  61  77 NW12G18   29.85F
FOSSTON        MOSUNNY   64  59  82 W10G16    29.86S
DETROIT LAKES  SUNNY     66  61  82 NW16      29.89R
MOORHEAD       SUNNY     70  61  73 NW13G18   29.89S
PARK RAPIDS    CLOUDY    66  60  81 NW15G24   29.86R
MAHNOMEN       FAIR      65  61  85 W15       29.87S
$$
MNZ006-009>011-018-025>026-241500-
   North Central Minnesota

CITY           SKY/WX    TMP DP  RH WIND       PRES   REMARKS
BAUDETTE       MOSUNNY   67  61  81 W14       29.76R
FLAG ISLAND    CLOUDY    64  61  88 W17G24    29.74R
INTL FALLS     CLOUDY    66  60  81 W12G20    29.75R
WASKISH        PTSUNNY   66  61  82 W10       29.80R
BIG FORK       MOSUNNY   72  61  68 W7        29.79R
LONGVILLE      SUNNY     68  63  83 W8G16     29.83R
GRAND RAPIDS   PTSUNNY   70  63  78 W10       29.82R
CRANE LAKE     MOSUNNY   70  63  78 W6        29.75R
ORR            SUNNY     72  61  68 W5        29.73S
COOK           SUNNY     72  63  73 W8        29.76S
WALKER         CLOUDY    65  60  84 NW9       29.84R
$$
MNZ012-019>021-037-241500-
   Northeast Minnesota

CITY           SKY/WX    TMP DP  RH WIND       PRES   REMARKS
DULUTH         PTSUNNY   72  66  81 NW12      29.78R
ELY            MOSUNNY   72  66  83 W9G16     29.75S
HIBBING        MOSUNNY   71  64  78 NW9       29.78R
EVELETH        PTSUNNY   73  65  75 W8        29.78S
DULUTH HARBOR  MOSUNNY   70  66  88 SW10      29.77R
TWO HARBORS    PTSUNNY   72  66  83 SW3       29.75R
SILVER BAY     CLOUDY    66  64  94 SW5       29.74S
GRAND MARAIS     N/A     61  59  93 SW3       29.71F
G MARAIS ARPRT CLOUDY    66  63  88 SW5       29.76R HAZE
$$
MNZ029>031-032-039>041-046>048-054>057-064-241500-
   West Central Minnesota

CITY           SKY/WX    TMP DP  RH WIND       PRES   REMARKS
FERGUS FALLS   SUNNY     66  64  94 NW13G18   29.92R
WHEATON        MOSUNNY   72  64  78 NW13      29.93S
MORRIS         MOSUNNY   70  63  78 NW13G21   29.91R
ALEXANDRIA     SUNNY     69  61  75 NW17      29.91R
ELBOW LAKE     FAIR      66  62  87 NW10G17   29.91S
WADENA         MOSUNNY   66  63  88 W9        29.88R
GLENWOOD       SUNNY     68  63  83 W15G22    29.91S
APPLETON       SUNNY     72  61  68 NW12      29.92R
BENSON         SUNNY     72  61  68 N10       29.91R
ORTONVILLE     SUNNY     72  61  68 NW13G18   29.93R
MADISON        MOSUNNY   70  61  73 NW10      29.94R
WILLMAR        FAIR      70  63  78 NW13      29.91R
$$
MNZ033>034-036-042>043-049>051-058-059-241500-
   Central Minnesota

CITY           SKY/WX    TMP DP  RH WIND       PRES   REMARKS
ST CLOUD       SUNNY     74  65  73 NW8       29.85S
SAUK CENTRE    FAIR      69  62  79 W10       29.89S
PAYNESVILLE    SUNNY     69  64  84 NW8       29.89S
AITKIN         SUNNY     73  63  68 W8        29.82R
PINE RIVER     SUNNY     66  63  88 NW8       29.88R
BRAINERD       MOSUNNY   69  62  78 W9        29.85R
STAPLES        SUNNY     66  61  82 NW12      29.87R
LONG PRAIRIE   FAIR      68  61  77 W8        29.88F
LITTLE FALLS   SUNNY     70  61  73 W14       29.86S
LITCHFIELD     SUNNY     73  66  78 NW7       29.90R
BUFFALO        SUNNY     74  65  73 W9        29.87R
MAPLE LAKE     SUNNY     74  67  77 NW9       29.88R
HUTCHINSON     SUNNY     73  67  82 W8        29.90S
$$
MNZ037-044-045-052-053-241500-
   East Central Minnesota

CITY           SKY/WX    TMP DP  RH WIND       PRES   REMARKS
PRINCETON      SUNNY     75  66  73 W10       29.85R
MORA           SUNNY     72  64  78 W7        29.85R
CAMBRIDGE      SUNNY     75  64  69 W8        29.82S
RUSH CITY      SUNNY     74  69  82 W8        29.83R
MOOSE LAKE     SUNNY     72  64  78 W6        29.79R
HINCKLEY       CLOUDY    72  70  94 W9        29.82R
CLOQUET        PTSUNNY   70  64  83 W8        29.79R
MCGREGOR       SUNNY     70  64  83 W7        29.82R
$$
MNZ071>073-080-081-089-090-097-098-241500-
   Southwest Minnesota

CITY           SKY/WX    TMP DP  RH WIND       PRES   REMARKS
MONTEVIDEO     PTSUNNY   72  63  73 N8        29.95R
GRANITE FALLS  MOSUNNY   71  64  80 W10       29.95R
CANBY          CLOUDY    72  61  69 W8        29.96R
MARSHALL       CLOUDY    70  61  73 NW10      29.94R
REDWOOD FALLS  MOSUNNY   72  61  68 NW10      29.91S
OLIVIA         MOSUNNY   70  63  78 NW8       29.92R
PIPESTONE      CLOUDY    72  64  78 NW9       29.98R
WINDOM         MOSUNNY   73  63  68 NW13      29.94R
WORTHINGTON    SUNNY     74  64  71 MISG      29.98R
JACKSON        SUNNY     73  61  64 N9G17     29.94F
TRACY          CLOUDY    72  64  76 NW10G16   29.95R
SLAYTON        CLOUDY    71  62  74 NW7       29.99R
$$
MNZ065>067-074>077-082>085-091>093-241500-
   South Central Minnesota

CITY           SKY/WX    TMP DP  RH WIND       PRES   REMARKS
MANKATO        SUNNY     73  64  73 NW12      29.89S
NEW ULM        MOSUNNY   73  66  78 NW13      29.90S
ST JAMES       MOSUNNY   70  61  73 NW10      29.93R
FAIRMONT       SUNNY     75  46  35 NW10      29.91R
GLENCOE        SUNNY     74  69  85 W10       29.88R
FARIBAULT      SUNNY     77  70  78 NW7       29.87S
OWATONNA       SUNNY     77  70  78 NW10      29.88R
WASECA         SUNNY     73  68  83 W12       29.91R
ALBERT LEA     SUNNY     77  70  78 N12       29.89R
$$
MNZ078>079-086>088-094>096-241500-
   Southeast Minnesota

CITY           SKY/WX    TMP DP  RH WIND       PRES   REMARKS
ROCHESTER      MOSUNNY   79  72  79 NW9       29.86R
RED WING       PTSUNNY   81  72  74 NW10      29.82R
STANTON        SUNNY     77  70  78 NW9       29.84R
DODGE CENTER   SUNNY     79  72  78 NW10G17   29.87R
WINONA         CLOUDY    79  73  83 NW5       29.80S
AUSTIN         SUNNY     79  70  73 NW14      29.87R
PRESTON        PTSUNNY   78  73  86 NW12      29.85S
$$
ABBREVIATIONS USED IN REMARKS
   TC - TEMPERATURES IN CELSIUS
  WCI - WIND CHILL INDEX
   HX - HEAT INDEX
  VSB - VISIBILITY
$$




USA.gov is the U.S. government's official web portal to all federal, state and local government web resources and services.